Latest Coastal Weather Observations for Arlington Reef

IDQ60701

Issued at 4:25 am EST Tuesday 2 September 2014 (issued every 10 minutes, with the page automatically refreshed every 10 minutes)

About coastal observations | Map of coastal stations | Coastal observations for QLD | Marine services | Other Formats
Station Details ID: 200879 Name: ARLINGTON REEF Lat: -16.72 Lon: 146.11 Height: 0.0 m
Data from the previous 72 hours. | See also: Recent months at Arlington Reef
Date/Time
EST
Temp

°C
Wind Pressure Rain
since 9am
mm
Weather Cloud Vis
km
Sea
Height
m
Swell
Dir
 
Speed
knots
Gust
knots
hPa Trend Height
m
Period
s
Dir
02/04:00am - SSE 10 12 1016.4 - - - - - - - - -
02/03:30am - SSE 9 11 1016.4 - - - - - - - - -
02/03:00am - SSE 9 11 1016.8 - - - - - - - - -
02/02:30am - SSE 8 10 1016.9 - - - - - - - - -
02/02:00am - SSE 8 10 1017.1 - - - - - - - - -
02/01:30am - SE 8 10 1017.5 - - - - - - - - -
02/01:00am - SE 9 10 1017.4 - - - - - - - - -
02/12:30am - SE 10 12 1017.5 - - - - - - - - -
02/12:00am - SE 10 12 1017.7 - - - - - - - - -
 
Date/Time
EST
Temp

°C
Wind Pressure Rain
since 9am
mm
Weather Cloud Vis
km
Sea
Height
m
Swell
Dir
 
Speed
knots
Gust
knots
hPa Trend Height
m
Period
s
Dir
01/11:30pm - SE 12 14 1017.8 - - - - - - - - -
01/11:00pm - ESE 13 15 1017.8 - - - - - - - - -
01/10:30pm - SE 12 15 1018.0 - - - - - - - - -
01/10:00pm - SE 13 16 1018.0 - - - - - - - - -
01/09:30pm - SE 14 17 1017.9 - - - - - - - - -
01/09:00pm - SE 16 18 1017.7 - - - - - - - - -
01/08:30pm - SE 16 20 1017.6 - - - - - - - - -
01/08:00pm - SE 16 20 1017.2 - - - - - - - - -
01/07:30pm - SE 16 19 1016.9 - - - - - - - - -
01/07:00pm - SE 17 19 1016.6 - - - - - - - - -
01/06:30pm - SE 16 19 1016.2 - - - - - - - - -
01/06:00pm - SE 17 20 1016.0 - - - - - - - - -
01/05:30pm - SE 17 20 1015.8 - - - - - - - - -
01/05:00pm - SE 17 21 1015.5 - - - - - - - - -
01/04:30pm - SE 17 20 1015.3 - - - - - - - - -
01/04:00pm - SE 16 19 1015.0 - - - - - - - - -
01/03:30pm - SE 16 19 1015.0 - - - - - - - - -
01/03:00pm - SE 17 21 1014.9 - - - - - - - - -
01/02:30pm - SSE 17 20 1015.1 - - - - - - - - -
01/02:00pm - S 17 20 1015.5 - - - - - - - - -
01/01:30pm - S 17 21 1016.0 - - - - - - - - -
01/01:00pm - S 16 20 1016.4 - - - - - - - - -
01/12:30pm - S 16 18 1016.8 - - - - - - - - -
01/12:00pm - S 16 19 1017.2 - - - - - - - - -
01/11:30am - S 15 18 1017.8 - - - - - - - - -
01/11:00am - S 16 19 1018.2 - - - - - - - - -
01/10:30am - S 15 18 1018.3 - - - - - - - - -
01/10:00am - S 17 20 1018.2 - - - - - - - - -
01/09:30am - S 15 18 1018.3 - - - - - - - - -
01/09:00am - S 15 18 1018.0 - - - - - - - - -
01/08:30am - S 14 17 1017.7 - - - - - - - - -
01/08:00am - S 12 14 1017.3 - - - - - - - - -
01/07:30am - S 14 16 1016.8 - - - - - - - - -
01/07:00am - S 13 17 1016.5 - - - - - - - - -
01/06:30am - S 14 17 1016.2 - - - - - - - - -
01/06:00am - S 14 16 1016.0 - - - - - - - - -
01/05:30am - S 14 17 1015.7 - - - - - - - - -
01/05:00am - S 13 15 1015.4 - - - - - - - - -
01/04:30am - S 13 16 1015.5 - - - - - - - - -
01/04:00am - S 13 16 1015.4 - - - - - - - - -
01/03:30am - SSE 14 18 1015.4 - - - - - - - - -
01/03:00am - SSE 14 18 1015.5 - - - - - - - - -
01/02:30am - SSE 14 18 1015.8 - - - - - - - - -
01/02:00am - SSE 13 16 1016.1 - - - - - - - - -
01/01:30am - SE 14 17 1016.2 - - - - - - - - -
01/01:00am - SE 15 18 1016.2 - - - - - - - - -
01/12:30am - SE 15 18 1016.4 - - - - - - - - -
01/12:00am - SE 15 18 1016.7 - - - - - - - - -
 
Date/Time
EST
Temp

°C
Wind Pressure Rain
since 9am
mm
Weather Cloud Vis
km
Sea
Height
m
Swell
Dir
 
Speed
knots
Gust
knots
hPa Trend Height
m
Period
s
Dir
31/11:30pm - SSE 15 19 1016.8 - - - - - - - - -
31/11:00pm - SE 16 19 1016.8 - - - - - - - - -
31/10:30pm - SE 16 19 1016.9 - - - - - - - - -
31/10:00pm - SSE 16 20 1016.8 - - - - - - - - -
31/09:30pm - SE 17 20 1016.7 - - - - - - - - -
31/09:00pm - SE 17 20 1016.7 - - - - - - - - -
31/08:30pm - SE 18 21 1016.3 - - - - - - - - -
31/08:00pm - SE 18 22 1016.2 - - - - - - - - -
31/07:30pm - SE 18 22 1015.8 - - - - - - - - -
31/07:00pm - SE 19 21 1015.6 - - - - - - - - -
31/06:30pm - SE 19 22 1015.1 - - - - - - - - -
31/06:00pm - SSE 18 21 1014.8 - - - - - - - - -
31/05:30pm - SSE 18 23 1014.5 - - - - - - - - -
31/05:00pm - SSE 18 22 1014.2 - - - - - - - - -
31/04:30pm - SE 18 21 1014.0 - - - - - - - - -
31/04:00pm - SSE 19 22 1013.8 - - - - - - - - -
31/03:30pm - SE 18 22 1013.8 - - - - - - - - -
31/03:00pm - SSE 18 21 1013.9 - - - - - - - - -
31/02:30pm - SSE 18 22 1014.3 - - - - - - - - -
31/02:00pm - SSE 18 21 1014.5 - - - - - - - - -
31/01:30pm - SSE 18 21 1014.7 - - - - - - - - -
31/01:00pm - S 18 22 1015.0 - - - - - - - - -
31/12:30pm - S 18 21 1015.5 - - - - - - - - -
31/12:00pm - S 18 21 1015.9 - - - - - - - - -
31/11:30am - S 18 21 1016.4 - - - - - - - - -
31/11:00am - S 17 21 1016.8 - - - - - - - - -
31/10:30am - S 17 20 1017.3 - - - - - - - - -
31/10:00am - S 17 20 1017.3 - - - - - - - - -
31/09:30am - S 17 19 1017.3 - - - - - - - - -
31/09:00am - S 16 18 1017.2 - - - - - - - - -
31/08:30am - S 16 19 1017.1 - - - - - - - - -
31/08:00am - S 16 19 1016.8 - - - - - - - - -
31/07:30am - S 16 19 1016.5 - - - - - - - - -
31/07:00am - S 16 21 1016.2 - - - - - - - - -
31/06:30am - S 16 19 1016.0 - - - - - - - - -
31/06:00am - S 15 18 1015.7 - - - - - - - - -
31/05:30am - S 15 18 1015.3 - - - - - - - - -
31/05:00am - S 15 18 1015.2 - - - - - - - - -
31/04:30am - S 15 17 1015.0 - - - - - - - - -
31/04:00am - S 14 16 1015.0 - - - - - - - - -
31/03:30am - SSE 12 14 1015.1 - - - - - - - - -
31/03:00am - SSE 12 14 1015.0 - - - - - - - - -
31/02:30am - SSE 12 15 1015.2 - - - - - - - - -
31/02:00am - SSE 12 15 1015.6 - - - - - - - - -
31/01:30am - SSE 13 15 1015.9 - - - - - - - - -
31/01:00am - SE 13 15 1016.3 - - - - - - - - -
31/12:30am - SE 15 18 1016.6 - - - - - - - - -
31/12:00am - SE 16 20 1016.8 - - - - - - - - -
 
Date/Time
EST
Temp

°C
Wind Pressure Rain
since 9am
mm
Weather Cloud Vis
km
Sea
Height
m
Swell
Dir
 
Speed
knots
Gust
knots
hPa Trend Height
m
Period
s
Dir
30/11:30pm - SE 16 20 1017.0 - - - - - - - - -
30/11:00pm - SE 14 17 1017.2 - - - - - - - - -
30/10:30pm - SE 16 19 1017.2 - - - - - - - - -
30/10:00pm - SE 15 18 1017.5 - - - - - - - - -
30/09:30pm - SE 16 19 1017.4 - - - - - - - - -
30/09:00pm - SE 17 20 1017.3 - - - - - - - - -
30/08:30pm - SE 18 21 1017.3 - - - - - - - - -
30/08:00pm - SE 18 22 1017.2 - - - - - - - - -
30/07:30pm - SE 18 23 1016.9 - - - - - - - - -
30/07:00pm - SE 18 22 1016.6 - - - - - - - - -
30/06:30pm - SE 17 20 1016.4 - - - - - - - - -
30/06:00pm - SE 18 24 1016.1 - - - - - - - - -
30/05:30pm - SE 17 21 1016.0 - - - - - - - - -
30/05:00pm - SE 19 22 1015.5 - - - - - - - - -
30/04:30pm - SSE 17 21 1015.3 - - - - - - - - -
30/04:00pm - SSE 18 22 1015.0 - - - - - - - - -
30/03:30pm - SSE 18 21 1015.1 - - - - - - - - -
30/03:00pm - SSE 19 23 1015.1 - - - - - - - - -
30/02:30pm - SSE 19 22 1015.3 - - - - - - - - -
30/02:00pm - SSE 18 22 1015.9 - - - - - - - - -
30/01:30pm - SSE 19 22 1016.4 - - - - - - - - -
30/01:00pm - SSE 18 22 1016.9 - - - - - - - - -
30/12:30pm - SSE 20 23 1017.1 - - - - - - - - -
30/12:00pm - SSE 20 24 1017.2 - - - - - - - - -
30/11:30am - SSE 20 24 1017.1 - - - - - - - - -
30/11:00am - SSE 20 24 1017.3 - - - - - - - - -
30/10:30am - SSE 19 22 1017.9 - - - - - - - - -
30/10:00am - SSE 20 23 1018.0 - - - - - - - - -
30/09:30am - SSE 21 24 1017.7 - - - - - - - - -
30/09:00am - SSE 21 25 1017.6 - - - - - - - - -
30/08:30am - SSE 21 26 1017.8 - - - - - - - - -
30/08:00am - SE 21 26 1017.7 - - - - - - - - -
30/07:30am - SE 21 25 1017.0 - - - - - - - - -
30/07:00am - SE 19 22 1017.2 - - - - - - - - -
30/06:30am - SE 20 24 1017.0 - - - - - - - - -
30/06:00am - SE 20 24 1016.5 - - - - - - - - -
30/05:30am - SE 19 23 1016.2 - - - - - - - - -
30/05:00am - SSE 19 23 1015.9 - - - - - - - - -
30/04:30am - SSE 19 23 1015.7 - - - - - - - - -

Other Formats:

Comma delimited format used in spreadsheet applications
http://www.bom.gov.au/fwo/IDQ60701/IDQ60701.94284.axf

JavaScript Object Notation format (JSON) in row-major order
http://www.bom.gov.au/fwo/IDQ60701/IDQ60701.94284.json